[[{"header":{"parameterUnit":"m.s-1","parameterCategory":2,"la1":30.2991,"la2":30.254,"lo1":-89.0895,"lo2":-89.0444,"dy":0.0017,"dx":0.0017,"nx":28,"ny":28,"refTime":"2024-04-19T03:00:00:Z","depth":"0","parameterNumber":2,"parameterNumberName":"U-component_of_CURRENTS"},"data":[0,0,0,0,0,0,0,0,0,0,0,0,0,0,0,0,0,0,0,0,0,0,0,0,0,0,0,0,0,0,0,0,0,0,0,0,0,0,0,0,0,0,0,0,0,0,0,0,0,0,0,0,0,0,0,0,0,0,0.3755,0.3757,0,0.3875,0.3876,0.3877,0.3932,0.3932,0.3932,0.3933,0.4023,0.4025,0.4027,0,0,0,0,0,0,0,0,0,0,0,0,0,0.3601,0.3603,0.3755,0.3757,0.3759,0.3875,0.3876,0.3877,0.3932,0.3932,0.3932,0.3933,0.4022,0.4025,0.4027,0,0,0,0,0,0,0,0,0,0,0,0,0,0.3684,0.3603,0.3755,0.3804,0.381,0.3875,0.3876,0.3878,0.3932,0.3932,0.3933,0.3933,0.4021,0.4024,0.4027,0.4037,0,0,0.4037,0.4038,0,0,0,0,0,0,0,0,0.3679,0.3689,0.3795,0.38,0.3807,0.3893,0.3855,0.3931,0.3931,0.388,0.3933,0.3933,0.3979,0.3986,0.4001,0.4042,0.4045,0.4037,0.4039,0.4041,0.4042,0,0,0,0,0,0,0,0.3673,0.3685,0.3798,0.3797,0.3804,0.383,0.3841,0.387,0.3921,0.3885,0.389,0.3911,0.3982,0.3998,0.4004,0.4047,0.4037,0.404,0.4042,0.4043,0.4128,0.4129,0,0,0,0,0,0,0.3667,0.3679,0.3794,0.3802,0.3749,0.3832,0.3845,0.3861,0.3922,0.3933,0.3911,0.3913,0.3992,0.4,0.4007,0.405,0.4041,0.4044,0.4045,0.4128,0.4128,0.4129,0,0,0,0,0,0,0.3663,0.3675,0.3789,0.3747,0.3764,0.3834,0.3852,0.3863,0.3886,0.3943,0.3953,0.3923,0.3993,0.4003,0.4044,0.4052,0.4045,0.4048,0.4127,0.4128,0.4128,0.4117,0,0,0,0,0,0,0.3658,0.3673,0.3681,0.3747,0.3766,0.3835,0.3853,0.3866,0.39,0.3905,0.3957,0.3966,0.3994,0.4039,0.4047,0.4057,0.405,0.4127,0.4128,0.4128,0.4117,0.4117,0.4117,0,0,0,0,0,0.3651,0.3662,0.3681,0.3695,0.3775,0.3837,0.3848,0.3897,0.39,0.3916,0.395,0.3964,0.4049,0.4042,0.4052,0.4062,0.4127,0.4127,0.4128,0.4117,0.4117,0.4117,0,0,0,0,0,0,0.3598,0.3671,0.3693,0.3724,0.378,0.3848,0.3867,0.3894,0.3933,0.3934,0.3973,0.3985,0.403,0.4043,0.4034,0.4088,0.4088,0.4091,0.4076,0.4077,0.4077,0.4062,0.4053,0,0,0,0,0,0.3591,0.3615,0.3691,0.3714,0.3741,0.38,0.3829,0.3863,0.391,0.3927,0.3963,0.3998,0.4039,0.4054,0.4095,0.4118,0.4146,0.4129,0.4129,0.4129,0.4123,0.4195,0.4201,0.4131,0.4131,0.4131,0,0,0.3577,0.3619,0.3634,0.3704,0.3745,0.3783,0.3817,0.3863,0.3889,0.3929,0.3964,0.4008,0.4049,0.4088,0.4106,0.4098,0.4161,0.413,0.4129,0.4123,0.4197,0.4204,0.421,0.4132,0.4132,0.4132,0,0,0.3562,0.3598,0.3617,0.3659,0.3728,0.377,0.3781,0.3852,0.3878,0.3921,0.3962,0.4005,0.4055,0.4093,0.4115,0.4135,0.417,0.4147,0.4125,0.4196,0.4203,0.4209,0.4241,0.4251,0.4134,0.4134,0.4134,0,0.3547,0.3582,0.3632,0.3659,0.3697,0.3759,0.3791,0.3824,0.3896,0.3931,0.3928,0.4029,0.4056,0.4117,0.4117,0.4135,0.4173,0.4122,0.4197,0.4204,0.421,0.4243,0.4253,0.4134,0.4134,0.4134,0.4134,0,0.3551,0.3579,0.3592,0.3648,0.3688,0.3728,0.3789,0.3825,0.3859,0.391,0.3982,0.4021,0.4088,0.4094,0.4105,0.4166,0.4178,0.4201,0.4197,0.4217,0.4249,0.426,0.4133,0.4133,0.4133,0.4134,0,0,0.3534,0.3588,0.3593,0.3615,0.3691,0.3725,0.3767,0.3848,0.3878,0.3938,0.3987,0.4046,0.4088,0.4113,0.4143,0.4172,0.4234,0.4193,0.4197,0.4224,0.4375,0.4321,0.4328,0.4284,0.4286,0.4288,0.4374,0,0.3534,0.3567,0.3602,0.3639,0.3672,0.3733,0.3763,0.3835,0.3892,0.3948,0.4011,0.4067,0.4091,0.4113,0.4161,0.4226,0.4265,0.4207,0.4352,0.4355,0.4305,0.434,0.4125,0.418,0.4385,0.4387,0.4388,0,0.3545,0.3567,0.3598,0.3646,0.3665,0.3688,0.3767,0.3805,0.3901,0.3944,0.4029,0.4084,0.4157,0.4152,0.4292,0.4262,0.4317,0.4348,0.4354,0.4314,0.4322,0.4196,0.4192,0.409,0.4405,0.4404,0.4403,0,0.3526,0.357,0.3592,0.361,0.3668,0.3691,0.3728,0.3815,0.3856,0.3948,0.3992,0.4103,0.4163,0.4252,0.435,0.4329,0.4486,0.4476,0.4478,0.4474,0.4322,0.4301,0.4232,0.457,0.457,0.457,0.457,0,0.353,0.3548,0.3578,0.359,0.3613,0.3665,0.3703,0.3756,0.3833,0.3892,0.3993,0.4057,0.4196,0.431,0.437,0.4471,0.4531,0.4477,0.4501,0.4309,0.4287,0.4216,0.419,0.4573,0.4572,0.4572,0.4571,0,0.3519,0.3536,0.3559,0.3598,0.3606,0.3624,0.3677,0.3705,0.3789,0.3863,0.3894,0.4057,0.4199,0.4329,0.4476,0.4504,0.4454,0.4607,0.4353,0.4344,0.4197,0.4179,0.4007,0.3897,0.4588,0.4587,0.4586,0,0.3521,0.3529,0.355,0.3547,0.3562,0.3589,0.3604,0.3676,0.3713,0.3863,0.3897,0.4062,0.4167,0.4367,0.4429,0.4525,0.4435,0.4388,0.4296,0.4158,0.4157,0.4003,0.3911,0.4085,0.408,0.4077,0.4074,0,0.352,0.352,0.3527,0.3519,0.3522,0.3534,0.3565,0.3585,0.3681,0.3745,0.3863,0.395,0.4136,0.4143,0.4276,0.4311,0.4141,0.4311,0.4239,0.3811,0.3566,0.3482,0.405,0.404,0.4043,0.4045,0.4047,0.4049,0.3507,0.35,0.349,0.3475,0.3477,0.3472,0.3446,0.3487,0.3525,0.356,0.3733,0.3761,0.3856,0.3994,0.4014,0.3901,0.3933,0.3791,0.3798,0.3667,0.3486,0.3966,0.3947,0.395,0.3952,0.3954,0.3956,0,0.3465,0.3447,0.3442,0.3403,0.3369,0.3396,0.3402,0.3344,0.333,0.3383,0.3433,0.3447,0.3438,0.3503,0.3498,0.3405,0.3235,0.3335,0.3055,0.3009,0.3496,0.34,0.3173,0.3173,0.3173,0.3173,0.3173,0.3173,0.3435,0.3394,0.3378,0.3291,0.3264,0.3179,0.3157,0.3085,0.3076,0.2978,0.2928,0.2969,0.3125,0.3176,0.3082,0.3017,0.282,0.2674,0.2739,0.3081,0.3123,0.3162,0.3063,0.2769,0.2769,0.2061,0.2056,0.2052]},{"header":{"parameterUnit":"m.s-1","parameterCategory":2,"la1":30.2991,"la2":30.254,"lo1":-89.0895,"lo2":-89.0444,"dy":0.0017,"dx":0.0017,"nx":28,"ny":28,"refTime":"2024-04-19T03:00:00:Z","depth":"0","parameterNumber":3,"parameterNumberName":"V-component_of_CURRENTS"},"data":[0,0,0,0,0,0,0,0,0,0,0,0,0,0,0,0,0,0,0,0,0,0,0,0,0,0,0,0,0,0,0,0,0,0,0,0,0,0,0,0,0,0,0,0,0,0,0,0,0,0,0,0,0,0,0,0,0,0,0.0046,0.0045,0,0.0004,0.0003,0.0003,-0.0032,-0.0033,-0.0033,-0.0033,-0.0092,-0.0093,-0.0094,0,0,0,0,0,0,0,0,0,0,0,0,0,0.0054,0.0054,0.0046,0.0045,0.0045,0.0004,0.0003,0.0003,-0.0032,-0.0033,-0.0033,-0.0034,-0.0092,-0.0093,-0.0094,0,0,0,0,0,0,0,0,0,0,0,0,0,0.0035,0.0054,0.0046,0.0023,0.002,0.0004,0.0003,0.0003,-0.0032,-0.0033,-0.0033,-0.0034,-0.0091,-0.0093,-0.0095,-0.0096,0,0,-0.01,-0.0101,0,0,0,0,0,0,0,0,0.0036,0.0034,0.0027,0.0024,0.0022,-0.0009,-0.0015,-0.0031,-0.0032,-0.0013,-0.0033,-0.0034,-0.0065,-0.0069,-0.0076,-0.0098,-0.0101,-0.0101,-0.0102,-0.0102,-0.0103,0,0,0,0,0,0,0,0.0037,0.0036,0.0029,0.0026,0.0023,0.0,-0.0003,-0.0019,-0.0036,-0.0014,-0.0017,-0.0021,-0.0067,-0.0074,-0.0078,-0.0102,-0.01,-0.0102,-0.0103,-0.0104,-0.0129,-0.0129,0,0,0,0,0,0,0.0046,0.0037,0.003,0.0028,0.0028,0.0001,-0.0003,0.0001,-0.0036,-0.0041,-0.002,-0.0022,-0.0071,-0.0076,-0.008,-0.007,-0.0102,-0.0104,-0.0105,-0.013,-0.0129,-0.0129,0,0,0,0,0,0,0.0047,0.0046,0.0032,0.0031,0.0028,0.0001,0.0005,0.0,-0.0006,-0.004,-0.0046,-0.0021,-0.0071,-0.0077,-0.0086,-0.0073,-0.0105,-0.0107,-0.013,-0.0129,-0.0129,-0.0059,0,0,0,0,0,0,0.0047,0.0047,0.0053,0.0032,0.0028,0.0033,0.0006,-0.0,-0.0007,-0.001,-0.0043,-0.0049,-0.0072,-0.0083,-0.0088,-0.0076,-0.0108,-0.0131,-0.013,-0.0129,-0.0062,-0.0056,-0.0051,0,0,0,0,0,0.0048,0.0064,0.0054,0.0053,0.0038,0.0034,0.0031,0.0009,-0.0007,-0.0001,-0.0024,-0.0048,-0.0082,-0.0084,-0.009,-0.0078,-0.0131,-0.013,-0.0129,-0.0064,-0.0057,-0.0051,0,0,0,0,0,0,0.0073,0.0061,0.005,0.0062,0.0052,0.0029,0.0033,0.0015,0.0,-0.0005,-0.0039,-0.0046,-0.0052,-0.0074,-0.0076,-0.0085,-0.0112,-0.0112,-0.006,-0.0054,-0.0048,-0.0024,-0.011,0,0,0,0,0,0.0082,0.0091,0.0073,0.0084,0.0082,0.0058,0.0053,0.0036,0.002,0.0013,-0.001,-0.0035,-0.0053,-0.0059,-0.008,-0.0079,-0.0096,-0.0078,-0.0072,-0.0067,-0.0052,-0.0068,-0.0063,-0.0125,-0.0125,-0.0125,0,0,0.0095,0.009,0.0095,0.009,0.0081,0.0091,0.0054,0.0053,0.0059,0.0009,0.0014,-0.0018,-0.005,-0.0051,-0.0056,-0.0067,-0.0058,-0.0066,-0.0062,-0.0049,-0.0067,-0.006,-0.0055,-0.0125,-0.0125,-0.0125,0,0,0.0132,0.0124,0.0143,0.0141,0.0131,0.0118,0.012,0.0099,0.0089,0.0086,0.0049,0.0031,0.0006,-0.0012,-0.0025,-0.0001,-0.0032,-0.0012,0.004,0.0024,0.003,0.0034,0.0026,0.0029,-0.0006,-0.0005,-0.0005,0,0.0148,0.0167,0.0149,0.0168,0.0172,0.0135,0.0157,0.0146,0.0123,0.0125,0.0098,0.0061,0.0028,0.003,0.0035,0.0013,0.0002,0.002,0.0033,0.0037,0.004,0.003,0.0033,-0.0002,-0.0002,-0.0003,-0.0003,0,0.0197,0.0211,0.0226,0.0238,0.0243,0.0253,0.0237,0.0236,0.0214,0.0202,0.0192,0.0142,0.0124,0.0104,0.0078,0.0086,0.007,0.0039,0.0021,0.0051,0.0038,0.004,0.0003,0.0002,0.0001,-0.0,0,0,0.0236,0.0255,0.0259,0.0279,0.0277,0.029,0.0305,0.0311,0.0335,0.0293,0.0316,0.0266,0.0234,0.0217,0.0171,0.0155,0.016,0.0116,0.0113,0.0116,0.0136,0.0139,0.014,0.0133,0.0134,0.0134,0.0119,0,0.0277,0.0326,0.0323,0.0372,0.0396,0.0377,0.0402,0.0404,0.0397,0.0411,0.0351,0.0349,0.0279,0.0268,0.0242,0.0185,0.0167,0.0168,0.0099,0.0097,0.0103,0.0143,0.0163,0.0153,0.012,0.012,0.0121,0,0.0327,0.0351,0.0405,0.0444,0.0454,0.0481,0.0519,0.0536,0.0542,0.0535,0.0516,0.047,0.0438,0.0367,0.0293,0.0299,0.0228,0.0175,0.0172,0.0155,0.0103,0.0115,0.0156,-0.0003,0.0122,0.0122,0.0122,0,0.037,0.0412,0.0458,0.047,0.0507,0.0534,0.0555,0.0579,0.0615,0.0616,0.0645,0.0582,0.0565,0.0469,0.0357,0.0326,0.0281,0.0218,0.0154,0.0152,0.0147,0.0145,0.0036,0.0165,0.0166,0.0166,0.0166,0,0.0418,0.0455,0.0485,0.0514,0.0582,0.0589,0.0667,0.0679,0.0718,0.0795,0.0714,0.076,0.0591,0.054,0.0412,0.031,0.0321,0.0182,0.0156,0.0172,0.0173,0.0014,-0.007,0.0165,0.0165,0.0165,0.0165,0,0.046,0.0476,0.0538,0.0585,0.0609,0.0661,0.0743,0.0802,0.0828,0.0926,0.093,0.09,0.0846,0.0683,0.054,0.04,0.0205,0.0236,0.0273,0.0251,0.0026,-0.0054,-0.0156,-0.0227,0.0159,0.0159,0.0159,0,0.0485,0.0522,0.0595,0.0641,0.0668,0.0744,0.0807,0.0852,0.093,0.1035,0.1096,0.1066,0.1092,0.0883,0.063,0.0416,0.0245,0.0257,0.019,0.0037,-0.0073,-0.013,-0.0187,0.0207,0.0208,0.0208,0.0208,0,0.0532,0.0559,0.0606,0.0705,0.078,0.0876,0.0973,0.1058,0.1144,0.125,0.1394,0.1425,0.1234,0.1032,0.0704,0.054,0.0158,0.0258,0.0086,-0.0041,-0.0098,-0.0185,0.0192,0.0212,0.0212,0.0211,0.0211,0.0211,0.0564,0.0606,0.0675,0.0773,0.0869,0.1011,0.1116,0.1247,0.1416,0.1604,0.1621,0.1713,0.1377,0.0955,0.0691,0.0203,0.0196,0.0033,-0.0049,-0.0092,-0.0165,0.0229,0.0224,0.0223,0.0223,0.0223,0.0223,0,0.0594,0.0647,0.074,0.087,0.0997,0.104,0.123,0.1359,0.1593,0.1763,0.1905,0.182,0.1404,0.0944,0.0302,-0.005,-0.0188,-0.0249,-0.0347,-0.0391,-0.005,-0.0055,-0.0106,-0.0105,-0.0105,-0.0105,-0.0105,-0.0105,0.061,0.0689,0.0743,0.0954,0.1062,0.1249,0.1373,0.1581,0.1741,0.1979,0.2055,0.2079,0.175,0.0615,-0.0179,-0.037,-0.0615,-0.0655,-0.0792,-0.0591,-0.0572,-0.0554,-0.0581,-0.074,-0.0741,-0.1094,-0.1097,-0.11]}],[{"header":{"parameterUnit":"m.s-1","parameterCategory":2,"la1":30.2991,"la2":30.254,"lo1":-89.0895,"lo2":-89.0444,"dy":0.0017,"dx":0.0017,"nx":28,"ny":28,"refTime":"2024-04-19T03:00:00:Z","depth":"2","parameterNumber":2,"parameterNumberName":"U-component_of_CURRENTS"},"data":[0,0,0,0,0,0,0,0,0,0,0,0,0,0,0,0,0,0,0,0,0,0,0,0,0,0,0,0,0,0,0,0,0,0,0,0,0,0,0,0,0,0,0,0,0,0,0,0,0,0,0,0,0,0,0,0,0,0,0.2714,0.2714,0,0.2698,0.2697,0.2697,0.2679,0.2679,0.2679,0.268,0.2656,0.2656,0.2655,0,0,0,0,0,0,0,0,0,0,0,0,0,0.2742,0.2741,0.2714,0.2714,0.2714,0.2698,0.2697,0.2697,0.2679,0.2679,0.268,0.268,0.2657,0.2656,0.2655,0,0,0,0,0,0,0,0,0,0,0,0,0,0.2724,0.2741,0.2714,0.2707,0.2706,0.2698,0.2697,0.2696,0.2679,0.2679,0.268,0.268,0.2657,0.2656,0.2655,0.2644,0,0,0.2651,0.2651,0,0,0,0,0,0,0,0,0.2725,0.2722,0.2708,0.2707,0.2707,0.2694,0.2699,0.268,0.2679,0.2685,0.268,0.268,0.2671,0.2669,0.2659,0.2643,0.2642,0.2651,0.2651,0.265,0.265,0,0,0,0,0,0,0,0.2726,0.2723,0.2703,0.2708,0.2707,0.2709,0.2706,0.2695,0.2674,0.2684,0.2684,0.2689,0.267,0.2661,0.2659,0.2641,0.2651,0.265,0.265,0.2649,0.2766,0.277,0,0,0,0,0,0,0.2736,0.2724,0.2704,0.2703,0.2721,0.2708,0.2705,0.2695,0.2674,0.2672,0.2689,0.2688,0.2662,0.266,0.2658,0.2757,0.265,0.2649,0.2648,0.2763,0.2767,0.2771,0,0,0,0,0,0,0.2736,0.2733,0.2704,0.2718,0.2715,0.2708,0.2696,0.2694,0.2718,0.2678,0.2675,0.272,0.2662,0.266,0.2694,0.2751,0.2649,0.2648,0.2758,0.2764,0.2769,0.2882,0,0,0,0,0,0,0.2736,0.2733,0.2747,0.2718,0.2714,0.2722,0.2697,0.2694,0.2721,0.2721,0.2703,0.2699,0.2662,0.2696,0.2693,0.2748,0.2647,0.2753,0.2761,0.2767,0.2873,0.289,0.2905,0,0,0,0,0,0.2737,0.2747,0.2748,0.2747,0.2727,0.2724,0.2723,0.2716,0.2723,0.2738,0.2743,0.2701,0.274,0.2698,0.2693,0.2749,0.275,0.2759,0.2767,0.2866,0.2887,0.2905,0,0,0,0,0,0,0.2775,0.2745,0.2746,0.2749,0.2752,0.2723,0.2743,0.2742,0.2756,0.2773,0.2733,0.273,0.2785,0.2761,0.2716,0.2811,0.2745,0.2753,0.2822,0.2841,0.2857,0.2862,0.2646,0,0,0,0,0,0.279,0.2787,0.2768,0.2781,0.2784,0.2775,0.2782,0.2783,0.2784,0.2791,0.2786,0.2796,0.2811,0.2822,0.2824,0.2866,0.2879,0.2909,0.2925,0.2938,0.2945,0.3032,0.3056,0.2799,0.2799,0.2799,0,0,0.2811,0.2798,0.2799,0.279,0.2792,0.2802,0.2779,0.2806,0.283,0.2787,0.2837,0.2848,0.2837,0.2887,0.2911,0.2877,0.3024,0.2949,0.296,0.296,0.3043,0.3068,0.309,0.2805,0.2804,0.2803,0,0,0.2845,0.2841,0.285,0.2851,0.2865,0.2856,0.2876,0.2879,0.2897,0.2941,0.2932,0.2985,0.2995,0.3008,0.3011,0.3122,0.3105,0.3138,0.3218,0.3303,0.3325,0.3343,0.3408,0.3432,0.3146,0.3147,0.3147,0,0.2882,0.2882,0.286,0.2871,0.2887,0.2887,0.2914,0.2925,0.2949,0.2985,0.2978,0.306,0.3051,0.312,0.3164,0.3155,0.32,0.3137,0.3323,0.3341,0.3359,0.3421,0.3445,0.3153,0.3152,0.3152,0.3151,0,0.2908,0.2927,0.2939,0.2945,0.2956,0.2989,0.2993,0.3037,0.3071,0.3089,0.3185,0.3194,0.3249,0.3265,0.3242,0.337,0.3362,0.333,0.3266,0.3391,0.3449,0.3472,0.3162,0.316,0.3158,0.3157,0,0,0.2945,0.2956,0.2964,0.2986,0.3007,0.3014,0.3073,0.3123,0.3181,0.3233,0.332,0.3372,0.3409,0.3419,0.3423,0.349,0.3651,0.3476,0.3477,0.3527,0.385,0.3569,0.3567,0.3663,0.3667,0.3671,0.3846,0,0.2987,0.3013,0.3016,0.3069,0.3085,0.3114,0.316,0.321,0.3262,0.3345,0.34,0.3475,0.3457,0.351,0.3585,0.3629,0.3717,0.3606,0.3732,0.3736,0.3459,0.3585,0.3329,0.3439,0.3869,0.3873,0.3875,0,0.3011,0.3025,0.3073,0.3128,0.3143,0.3183,0.3271,0.3316,0.3416,0.347,0.357,0.3605,0.3727,0.3687,0.3857,0.3797,0.3851,0.3874,0.3881,0.3588,0.3496,0.3383,0.3465,0.3914,0.3911,0.3908,0.3905,0,0.3015,0.3072,0.3114,0.3129,0.3183,0.3241,0.3288,0.3371,0.3418,0.3565,0.3624,0.3764,0.3835,0.3945,0.3986,0.3964,0.4141,0.4112,0.3914,0.3896,0.368,0.3631,0.4254,0.4254,0.4254,0.4253,0.4253,0,0.3035,0.3073,0.3129,0.3144,0.3214,0.326,0.335,0.342,0.3526,0.357,0.3699,0.3736,0.3908,0.3997,0.4055,0.4034,0.4212,0.3947,0.3926,0.3709,0.3663,0.4061,0.4037,0.426,0.4258,0.4257,0.4256,0,0.301,0.3054,0.3098,0.3177,0.3209,0.3255,0.3351,0.3399,0.3524,0.3593,0.3647,0.3772,0.3844,0.3964,0.4115,0.407,0.4109,0.4061,0.377,0.3705,0.3806,0.3786,0.3891,0.3883,0.3876,0.387,0.3865,0,0.2983,0.3006,0.309,0.3108,0.3149,0.3223,0.3259,0.3385,0.3422,0.3552,0.3566,0.3675,0.3664,0.3765,0.374,0.3794,0.3931,0.3556,0.3426,0.3802,0.3773,0.3764,0.3754,0.3239,0.3229,0.3221,0.3215,0,0.2909,0.2959,0.2982,0.3027,0.3073,0.3115,0.3184,0.3199,0.3318,0.3355,0.3354,0.3365,0.3413,0.328,0.3319,0.331,0.3518,0.338,0.393,0.3297,0.318,0.3152,0.3166,0.3144,0.3151,0.3156,0.316,0.3163,0.2835,0.2833,0.2866,0.292,0.2963,0.2971,0.2922,0.2965,0.2956,0.2941,0.3047,0.2966,0.3019,0.2859,0.2796,0.2769,0.2993,0.2927,0.2957,0.2995,0.2814,0.2683,0.2524,0.2527,0.253,0.2533,0.2535,0,0.2684,0.272,0.2746,0.2753,0.2721,0.2824,0.2825,0.2715,0.2588,0.2641,0.2592,0.2366,0.2273,0.2352,0.2192,0.2171,0.223,0.2095,0.2193,0.2263,0.2326,0.2116,0.1639,0.1636,0.1633,0.163,0,0,0.259,0.2554,0.2594,0.2508,0.2517,0.2403,0.2361,0.2229,0.2206,0.2057,0.2011,0.2141,0.2257,0.1906,0.1868,0.1731,0.1985,0.1659,0.2383,0.2569,0.2628,0.2811,0.2564,0,0,0,0,0]},{"header":{"parameterUnit":"m.s-1","parameterCategory":2,"la1":30.2991,"la2":30.254,"lo1":-89.0895,"lo2":-89.0444,"dy":0.0017,"dx":0.0017,"nx":28,"ny":28,"refTime":"2024-04-19T03:00:00:Z","depth":"2","parameterNumber":3,"parameterNumberName":"V-component_of_CURRENTS"},"data":[0,0,0,0,0,0,0,0,0,0,0,0,0,0,0,0,0,0,0,0,0,0,0,0,0,0,0,0,0,0,0,0,0,0,0,0,0,0,0,0,0,0,0,0,0,0,0,0,0,0,0,0,0,0,0,0,0,0,-0.0054,-0.0055,0,-0.016,-0.0161,-0.0163,-0.0259,-0.026,-0.0261,-0.0262,-0.0443,-0.0447,-0.0451,0,0,0,0,0,0,0,0,0,0,0,0,0,-0.0002,-0.0002,-0.0054,-0.0055,-0.0057,-0.016,-0.0161,-0.0163,-0.0259,-0.026,-0.0262,-0.0263,-0.0442,-0.0446,-0.0451,0,0,0,0,0,0,0,0,0,0,0,0,0,-0.006,-0.0002,-0.0054,-0.0116,-0.0122,-0.0159,-0.0161,-0.0163,-0.0259,-0.0261,-0.0262,-0.0263,-0.044,-0.0446,-0.0452,-0.0458,0,0,-0.047,-0.0472,0,0,0,0,0,0,0,0,-0.0056,-0.0062,-0.0105,-0.0111,-0.0119,-0.0196,-0.0209,-0.0265,-0.0259,-0.0209,-0.0262,-0.0264,-0.0365,-0.0377,-0.0396,-0.0467,-0.0475,-0.047,-0.0474,-0.0476,-0.0478,0,0,0,0,0,0,0,-0.0052,-0.0058,-0.0098,-0.0106,-0.0114,-0.016,-0.017,-0.022,-0.0281,-0.0214,-0.022,-0.0228,-0.037,-0.039,-0.0401,-0.0477,-0.047,-0.0475,-0.0479,-0.0481,-0.0608,-0.0608,0,0,0,0,0,0,-0.0029,-0.0054,-0.0095,-0.0101,-0.0088,-0.0159,-0.017,-0.0171,-0.0279,-0.0295,-0.0227,-0.0232,-0.0379,-0.0394,-0.0408,-0.0432,-0.0476,-0.0482,-0.0485,-0.0608,-0.0608,-0.0608,0,0,0,0,0,0,-0.0028,-0.0032,-0.0091,-0.0079,-0.0089,-0.0158,-0.0159,-0.0173,-0.0204,-0.0287,-0.0306,-0.0245,-0.0381,-0.0399,-0.0454,-0.044,-0.0484,-0.049,-0.0608,-0.0608,-0.0608,-0.0475,0,0,0,0,0,0,-0.0026,-0.003,-0.003,-0.0077,-0.0089,-0.0109,-0.0158,-0.0174,-0.0205,-0.0213,-0.0309,-0.0327,-0.0383,-0.0445,-0.046,-0.0449,-0.0494,-0.0608,-0.0608,-0.0608,-0.048,-0.047,-0.0463,0,0,0,0,0,-0.0023,-0.0013,-0.0029,-0.0035,-0.0084,-0.0108,-0.0118,-0.0174,-0.0204,-0.021,-0.0274,-0.0324,-0.0454,-0.0449,-0.0467,-0.0457,-0.0608,-0.0608,-0.0608,-0.0484,-0.0472,-0.0463,0,0,0,0,0,0,0.0001,-0.0023,-0.0042,-0.0042,-0.007,-0.0123,-0.0136,-0.0169,-0.0224,-0.0238,-0.032,-0.0341,-0.0384,-0.0441,-0.0433,-0.0496,-0.0541,-0.0544,-0.044,-0.0431,-0.0422,-0.0381,-0.0499,0,0,0,0,0,0.0012,0.0015,-0.0018,-0.002,-0.0028,-0.008,-0.01,-0.0133,-0.0182,-0.0209,-0.0274,-0.0343,-0.0394,-0.0428,-0.0485,-0.0515,-0.0535,-0.0524,-0.0516,-0.0508,-0.0488,-0.0499,-0.0488,-0.0607,-0.0607,-0.0607,0,0,0.0018,0.0007,0.0005,-0.0014,-0.0043,-0.0041,-0.0097,-0.0117,-0.0121,-0.0219,-0.0253,-0.0315,-0.0396,-0.0429,-0.0454,-0.0477,-0.0483,-0.0507,-0.0499,-0.0485,-0.0497,-0.0485,-0.0475,-0.0606,-0.0606,-0.0606,0,0,0.0043,0.0027,0.0041,0.0032,0.0006,-0.0019,-0.002,-0.0068,-0.0095,-0.0128,-0.0196,-0.0243,-0.0333,-0.0374,-0.0409,-0.0388,-0.0435,-0.0419,-0.0343,-0.0353,-0.0342,-0.0333,-0.0323,-0.0315,-0.0416,-0.0415,-0.0415,0,0.0047,0.0066,0.0039,0.0056,0.0055,-0.0001,0.0018,-0.0011,-0.0072,-0.0081,-0.0126,-0.0227,-0.03,-0.032,-0.0318,-0.0365,-0.0373,-0.0369,-0.0336,-0.0328,-0.0321,-0.0314,-0.0306,-0.0409,-0.041,-0.041,-0.0411,0,0.0089,0.0102,0.0112,0.012,0.0117,0.0121,0.0095,0.008,0.0039,0.0009,-0.0026,-0.0114,-0.0169,-0.0204,-0.0258,-0.0245,-0.0266,-0.0318,-0.035,-0.03,-0.0297,-0.0291,-0.04,-0.0402,-0.0404,-0.0406,0,0,0.0104,0.0135,0.0139,0.0161,0.0155,0.016,0.0168,0.0164,0.0182,0.0111,0.0128,0.0034,-0.0009,-0.0051,-0.0121,-0.0138,-0.0098,-0.0198,-0.0201,-0.0164,-0.0097,-0.0152,-0.0151,-0.014,-0.0139,-0.0138,-0.0107,0,0.014,0.0198,0.0201,0.0249,0.0275,0.0253,0.0273,0.0264,0.0242,0.0244,0.0167,0.0145,0.0049,0.0032,0.0003,-0.0076,-0.0079,-0.01,-0.0172,-0.0174,-0.0209,-0.0145,-0.0125,-0.01,-0.0101,-0.01,-0.01,0,0.0183,0.0217,0.0279,0.033,0.0341,0.0364,0.0403,0.0414,0.0408,0.0393,0.0366,0.0304,0.0269,0.0179,0.0101,0.0093,0.0019,-0.0045,-0.0046,-0.0137,-0.0217,-0.0157,-0.0089,-0.009,-0.0091,-0.0091,-0.0092,0,0.0217,0.0274,0.0329,0.0345,0.039,0.042,0.0443,0.0458,0.0493,0.0498,0.0526,0.0458,0.0437,0.0339,0.0194,0.0158,0.0115,0.0042,-0.0068,-0.0072,-0.0089,-0.0098,0.0009,0.0009,0.0009,0.0009,0.0009,0,0.0257,0.0299,0.0354,0.0386,0.0459,0.0475,0.0552,0.0567,0.0616,0.069,0.061,0.065,0.0477,0.0416,0.0272,0.0133,0.0176,-0.0026,-0.0063,-0.0045,-0.0049,-0.0084,-0.0095,0.001,0.001,0.001,0.0009,0,0.0275,0.0312,0.0378,0.0447,0.0477,0.0528,0.0626,0.069,0.0728,0.0831,0.0844,0.0808,0.0717,0.0543,0.0388,0.0242,0.0105,0.0042,0.0082,0.0048,-0.0089,-0.0094,-0.0061,-0.0062,-0.0064,-0.0065,-0.0066,0,0.0285,0.0325,0.0421,0.0472,0.0505,0.0588,0.066,0.0732,0.0826,0.0935,0.1004,0.0946,0.0914,0.0663,0.0389,0.0151,0.0106,0.002,-0.0066,-0.0055,-0.0094,-0.0097,-0.01,-0.0022,-0.0022,-0.0022,-0.0023,0,0.0299,0.0335,0.0392,0.0509,0.0596,0.0712,0.0835,0.0938,0.1054,0.1133,0.1242,0.1223,0.097,0.0713,0.0368,0.0199,0.0051,0.0001,0.0033,-0.0028,-0.0022,-0.006,-0.0063,-0.0026,-0.0026,-0.0026,-0.0025,-0.0025,0.0302,0.0348,0.0442,0.0557,0.0671,0.0861,0.0979,0.1115,0.1278,0.142,0.1391,0.1339,0.1067,0.0584,0.031,0.0005,0.0003,-0.0098,-0.0094,-0.0091,-0.0113,-0.0112,-0.0135,-0.0135,-0.0135,-0.0136,-0.0136,0,0.0328,0.039,0.0491,0.0669,0.0839,0.0891,0.1115,0.1229,0.1423,0.148,0.1508,0.1231,0.0949,0.0627,0.0172,-0.0089,-0.0106,-0.0171,-0.0122,-0.0117,-0.0112,-0.0135,-0.0163,-0.0164,-0.0165,-0.0165,0,0,0.0345,0.0452,0.0527,0.0806,0.094,0.1163,0.1306,0.1425,0.1491,0.1537,0.1478,0.1369,0.1016,0.0685,0.0338,0.0089,0.0042,0.0032,0.0082,0.0187,0.0194,-0.0043,-0.0069,0,0,0,0,0]}],[{"header":{"parameterUnit":"m.s-1","parameterCategory":2,"la1":30.2991,"la2":30.254,"lo1":-89.0895,"lo2":-89.0444,"dy":0.0017,"dx":0.0017,"nx":28,"ny":28,"refTime":"2024-04-19T03:00:00:Z","depth":"4","parameterNumber":2,"parameterNumberName":"U-component_of_CURRENTS"},"data":[0,0,0,0,0,0,0,0,0,0,0,0,0,0,0,0,0,0,0,0,0,0,0,0,0,0,0,0,0,0,0,0,0,0,0,0,0,0,0,0,0,0,0,0,0,0,0,0,0,0,0,0,0,0,0,0,0,0,0.0772,0.0773,0,0.0821,0.0821,0.0821,0.0855,0.0856,0.0857,0.0857,0.0901,0.0902,0.0902,0,0,0,0,0,0,0,0,0,0,0,0,0,0.0692,0.0693,0.0772,0.0773,0.0774,0.0821,0.0821,0.0822,0.0855,0.0856,0.0857,0.0857,0.0901,0.0902,0.0902,0,0,0,0,0,0,0,0,0,0,0,0,0,0.0729,0.0693,0.0772,0.0799,0.0802,0.0821,0.0821,0.0822,0.0855,0.0856,0.0857,0.0858,0.0901,0.0902,0.0903,0.089,0,0,0.0905,0.0906,0,0,0,0,0,0,0,0,0.0727,0.0731,0.0794,0.0797,0.0801,0.0836,0.0809,0.0846,0.0855,0.0831,0.0857,0.0858,0.0881,0.0883,0.0885,0.0892,0.0894,0.0905,0.0906,0.0906,0.0907,0,0,0,0,0,0,0,0.0724,0.0729,0.0788,0.0795,0.0799,0.0804,0.081,0.0816,0.0847,0.0833,0.0837,0.0848,0.0882,0.0884,0.0887,0.0895,0.0905,0.0906,0.0907,0.0907,0.0981,0.0982,0,0,0,0,0,0,0.0725,0.0727,0.0786,0.079,0.0769,0.0805,0.0811,0.0821,0.0848,0.0854,0.0847,0.0849,0.0882,0.0886,0.0888,0.0961,0.0906,0.0907,0.0908,0.0979,0.0981,0.0983,0,0,0,0,0,0,0.0723,0.073,0.0784,0.0762,0.077,0.0806,0.0816,0.0822,0.0851,0.0859,0.0864,0.0875,0.0883,0.0887,0.0918,0.0959,0.0908,0.0908,0.0978,0.098,0.0982,0.105,0,0,0,0,0,0,0.0721,0.0729,0.0745,0.0762,0.0772,0.081,0.0816,0.0822,0.0857,0.0861,0.0884,0.0887,0.0884,0.0917,0.0919,0.096,0.0909,0.0976,0.0979,0.0981,0.1046,0.1055,0.1062,0,0,0,0,0,0.0718,0.0734,0.0746,0.0754,0.079,0.0811,0.0816,0.0841,0.0858,0.0871,0.0891,0.0888,0.0935,0.0918,0.0921,0.0963,0.0975,0.0978,0.0981,0.1043,0.1053,0.1061,0,0,0,0,0,0,0.0696,0.074,0.0753,0.0779,0.0802,0.0819,0.0841,0.0856,0.0882,0.0895,0.0899,0.0904,0.0949,0.0942,0.0923,0.0991,0.0957,0.0961,0.1004,0.1013,0.102,0.1028,0.091,0,0,0,0,0,0.0702,0.0735,0.0761,0.0784,0.08,0.0825,0.0842,0.0859,0.0881,0.0895,0.0915,0.0936,0.0958,0.0975,0.0988,0.102,0.1023,0.105,0.1058,0.1064,0.1073,0.1106,0.1117,0.0993,0.0993,0.0993,0,0,0.0699,0.073,0.0747,0.0785,0.0807,0.0831,0.0837,0.0871,0.09,0.0894,0.0948,0.0964,0.0972,0.1013,0.1033,0.1017,0.1104,0.1068,0.1074,0.1079,0.111,0.1122,0.1133,0.0995,0.0995,0.0994,0,0,0.0707,0.0739,0.0769,0.0792,0.0836,0.0851,0.0868,0.0903,0.0932,0.0974,0.0985,0.1028,0.1055,0.1078,0.1089,0.1145,0.1142,0.1153,0.1202,0.1235,0.1245,0.1255,0.1286,0.1297,0.1159,0.1159,0.1159,0,0.0705,0.0742,0.0777,0.0807,0.0835,0.0865,0.0893,0.0922,0.0966,0.1001,0.1001,0.1076,0.1088,0.1144,0.117,0.1165,0.1179,0.1167,0.1245,0.1255,0.1263,0.1293,0.1304,0.1163,0.1162,0.1162,0.1162,0,0.0726,0.0764,0.0783,0.0837,0.0867,0.0897,0.094,0.0983,0.1024,0.1059,0.1134,0.1152,0.1203,0.1215,0.1211,0.1284,0.1274,0.125,0.1222,0.128,0.1307,0.1318,0.1168,0.1167,0.1166,0.1165,0,0,0.0697,0.0783,0.079,0.0823,0.0889,0.0909,0.0974,0.1038,0.1097,0.1144,0.1218,0.1267,0.1298,0.1312,0.1322,0.135,0.1428,0.1333,0.1333,0.1365,0.1507,0.1444,0.1449,0.1419,0.1421,0.1422,0.1507,0,0.0704,0.0763,0.0809,0.0864,0.0896,0.0954,0.1016,0.1082,0.1146,0.1224,0.1269,0.1345,0.1328,0.1375,0.1399,0.141,0.1459,0.1408,0.1446,0.1447,0.1384,0.146,0.1429,0.1515,0.1517,0.1519,0.152,0,0.071,0.0749,0.0809,0.0895,0.0916,0.0957,0.1064,0.1129,0.1244,0.1301,0.1381,0.1426,0.1494,0.1472,0.1529,0.1496,0.1525,0.1527,0.153,0.1453,0.1404,0.1443,0.154,0.1538,0.1537,0.1536,0.1534,0,0.0673,0.075,0.0802,0.0828,0.0926,0.0974,0.1038,0.1157,0.1237,0.1371,0.1443,0.1512,0.1584,0.1592,0.1627,0.1586,0.1683,0.1621,0.1598,0.1593,0.1592,0.1581,0.1697,0.1697,0.1697,0.1696,0.1696,0,0.0665,0.0704,0.079,0.0811,0.0876,0.0966,0.1066,0.1146,0.1288,0.1398,0.1492,0.1581,0.1625,0.169,0.1669,0.1674,0.1728,0.1628,0.1618,0.162,0.1611,0.1601,0.1588,0.1699,0.1699,0.1698,0.1698,0,0.0628,0.069,0.0744,0.0835,0.0864,0.0919,0.1066,0.1141,0.1296,0.1439,0.1499,0.1662,0.1746,0.178,0.1828,0.1754,0.1745,0.1755,0.1789,0.1776,0.1616,0.1607,0.1691,0.1689,0.1688,0.1687,0.1686,0,0.0611,0.0642,0.0732,0.076,0.0803,0.0897,0.0962,0.1121,0.1218,0.1479,0.1538,0.1716,0.1803,0.181,0.1839,0.1816,0.1803,0.1786,0.1664,0.1637,0.162,0.1612,0.1604,0.1685,0.1684,0.1684,0.1684,0,0.0562,0.0615,0.0649,0.0711,0.0767,0.0839,0.0954,0.1024,0.1245,0.1383,0.1563,0.1645,0.1763,0.1782,0.1824,0.1789,0.1758,0.1772,0.1772,0.1657,0.163,0.1612,0.1606,0.168,0.168,0.168,0.1681,0,0.0518,0.0526,0.0585,0.0644,0.0719,0.0784,0.0847,0.0983,0.1106,0.14,0.1458,0.1632,0.1776,0.1777,0.1788,0.1773,0.1711,0.1613,0.1619,0.1624,0.1559,0.1512,0.1539,0,0,0,0,0,0.0465,0.0473,0.051,0.0582,0.0674,0.0728,0.085,0.0932,0.1145,0.1239,0.1358,0.147,0.156,0.1638,0.16,0.1712,0.1684,0.1657,0.1565,0.1657,0.1662,0.1588,0,0,0,0,0,0,0.0423,0.0446,0.0474,0.0542,0.0603,0.0689,0.0771,0.0898,0.097,0.1185,0.1236,0.1384,0.1471,0.158,0.1582,0.1597,0.1506,0.1755,0.1751,0.1654,0.1659,0.1662,0.1588,0,0,0,0,0]},{"header":{"parameterUnit":"m.s-1","parameterCategory":2,"la1":30.2991,"la2":30.254,"lo1":-89.0895,"lo2":-89.0444,"dy":0.0017,"dx":0.0017,"nx":28,"ny":28,"refTime":"2024-04-19T03:00:00:Z","depth":"4","parameterNumber":3,"parameterNumberName":"V-component_of_CURRENTS"},"data":[0,0,0,0,0,0,0,0,0,0,0,0,0,0,0,0,0,0,0,0,0,0,0,0,0,0,0,0,0,0,0,0,0,0,0,0,0,0,0,0,0,0,0,0,0,0,0,0,0,0,0,0,0,0,0,0,0,0,0.0421,0.042,0,0.0388,0.0388,0.0387,0.0377,0.0378,0.0378,0.0378,0.0347,0.0346,0.0345,0,0,0,0,0,0,0,0,0,0,0,0,0,0.0427,0.0427,0.0421,0.042,0.042,0.0388,0.0388,0.0387,0.0377,0.0378,0.0378,0.0378,0.0347,0.0346,0.0344,0,0,0,0,0,0,0,0,0,0,0,0,0,0.041,0.0427,0.0421,0.0413,0.0412,0.0388,0.0388,0.0387,0.0377,0.0378,0.0378,0.0379,0.0348,0.0346,0.0344,0.0323,0,0,0.0339,0.0338,0,0,0,0,0,0,0,0,0.0411,0.041,0.0414,0.0414,0.0413,0.0389,0.0378,0.0366,0.0377,0.0388,0.0378,0.0379,0.0362,0.0359,0.0349,0.0321,0.032,0.0339,0.0338,0.0337,0.0336,0,0,0,0,0,0,0,0.0413,0.0411,0.0406,0.0414,0.0413,0.0395,0.0394,0.0376,0.0371,0.0387,0.0387,0.0387,0.0361,0.035,0.0348,0.0319,0.0339,0.0337,0.0336,0.0335,0.0287,0.0287,0,0,0,0,0,0,0.0423,0.0412,0.0407,0.0405,0.0416,0.0395,0.0393,0.0394,0.0371,0.0369,0.0386,0.0386,0.0353,0.035,0.0347,0.0337,0.0337,0.0335,0.0334,0.0287,0.0287,0.0287,0,0,0,0,0,0,0.0423,0.0423,0.0408,0.0409,0.0407,0.0395,0.0396,0.0394,0.0392,0.0371,0.0368,0.0388,0.0354,0.0349,0.0337,0.0335,0.0334,0.0333,0.0288,0.0287,0.0287,0.0307,0,0,0,0,0,0,0.0423,0.0423,0.043,0.041,0.0407,0.04,0.0396,0.0393,0.0391,0.0391,0.0371,0.0368,0.0354,0.034,0.0336,0.0333,0.0331,0.0288,0.0288,0.0287,0.0306,0.0307,0.0308,0,0,0,0,0,0.0424,0.0432,0.0431,0.043,0.0416,0.0401,0.0397,0.0389,0.0391,0.0389,0.0377,0.0369,0.0334,0.0339,0.0333,0.033,0.0288,0.0288,0.0287,0.0306,0.0307,0.0308,0,0,0,0,0,0,0.0437,0.0431,0.0429,0.0435,0.0422,0.04,0.0402,0.0394,0.0381,0.0386,0.0366,0.0362,0.0349,0.0337,0.0342,0.0314,0.031,0.0308,0.0326,0.0327,0.0327,0.0336,0.033,0,0,0,0,0,0.0444,0.0451,0.0436,0.0441,0.0438,0.0421,0.0416,0.0408,0.0394,0.039,0.0376,0.036,0.034,0.0333,0.0314,0.0301,0.0268,0.0295,0.0296,0.0296,0.0299,0.0241,0.0237,0.0285,0.0285,0.0285,0,0,0.045,0.0449,0.0453,0.0444,0.0436,0.0433,0.0419,0.0414,0.0411,0.0388,0.0384,0.0362,0.0336,0.032,0.0313,0.0312,0.0264,0.0296,0.0296,0.0299,0.024,0.0235,0.0231,0.0285,0.0285,0.0285,0,0,0.0464,0.0466,0.0474,0.0466,0.0458,0.0447,0.0449,0.0431,0.0425,0.0413,0.0394,0.037,0.0348,0.0323,0.0309,0.0301,0.0268,0.0299,0.0311,0.0255,0.025,0.0246,0.0193,0.0184,0.0301,0.0301,0.0301,0,0.047,0.0482,0.0473,0.0475,0.0477,0.0458,0.0464,0.0449,0.0429,0.0423,0.0418,0.0368,0.0347,0.0315,0.0314,0.0302,0.0268,0.0311,0.0255,0.025,0.0245,0.0192,0.0182,0.0302,0.0302,0.0302,0.0302,0,0.0483,0.0496,0.05,0.0502,0.05,0.0501,0.0485,0.0479,0.0471,0.0453,0.0424,0.0383,0.0355,0.0339,0.0326,0.0284,0.0269,0.0261,0.0253,0.0241,0.0186,0.0175,0.0303,0.0303,0.0303,0.0303,0,0,0.0493,0.0507,0.0511,0.0523,0.0517,0.0517,0.0515,0.0504,0.0506,0.0469,0.0455,0.0407,0.0383,0.0364,0.0333,0.0284,0.0217,0.0265,0.0261,0.0214,0.0092,0.0111,0.0101,0.0198,0.0196,0.0195,0.0065,0,0.0507,0.053,0.0531,0.0553,0.0565,0.0553,0.0556,0.0543,0.0526,0.0506,0.0447,0.0426,0.0392,0.0381,0.0322,0.0245,0.0189,0.0253,0.011,0.0106,0.0125,0.0089,0.019,0.0057,0.0054,0.0052,0.0051,0,0.052,0.0538,0.0568,0.0592,0.0596,0.0608,0.0617,0.0616,0.0579,0.0564,0.0518,0.0474,0.0398,0.0375,0.022,0.0263,0.0183,0.0117,0.011,0.0116,0.0105,0.0071,0.003,0.0031,0.0033,0.0034,0.0036,0,0.0539,0.0565,0.0598,0.0603,0.0621,0.0639,0.0652,0.0639,0.0648,0.0605,0.0596,0.0495,0.0452,0.0327,0.0198,0.0204,0.0026,0.0014,-0.0049,-0.0049,-0.0036,-0.003,-0.0097,-0.0097,-0.0096,-0.0096,-0.0095,0,0.0551,0.0577,0.0615,0.0631,0.0675,0.0678,0.072,0.071,0.0704,0.0712,0.0634,0.0603,0.0439,0.0323,0.0196,0.004,0.0018,-0.0057,-0.0084,-0.0025,-0.0016,-0.0045,-0.0037,-0.0101,-0.01,-0.0099,-0.0098,0,0.0561,0.0583,0.0627,0.0669,0.0688,0.0724,0.078,0.0803,0.0791,0.0793,0.0783,0.0673,0.0521,0.0354,0.0148,0.0052,-0.0105,-0.015,-0.0073,-0.0093,-0.0147,-0.0136,-0.0252,-0.0252,-0.0252,-0.0253,-0.0253,0,0.0565,0.059,0.0662,0.0698,0.0724,0.0784,0.0827,0.0848,0.087,0.0833,0.0825,0.0698,0.0605,0.0318,0.0147,-0.0103,-0.0125,-0.0206,-0.0182,-0.0149,-0.0165,-0.0153,-0.0143,-0.0254,-0.0254,-0.0254,-0.0254,0,0.0571,0.0607,0.0644,0.0729,0.0789,0.0854,0.0911,0.0932,0.0945,0.0935,0.0852,0.071,0.054,0.0321,0.0139,-0.0037,-0.0159,-0.0211,-0.0211,-0.019,-0.0153,-0.0165,-0.0155,-0.0255,-0.0255,-0.0255,-0.0255,0,0.0582,0.0614,0.0677,0.0749,0.0831,0.0897,0.0927,0.0945,0.0965,0.092,0.0891,0.0711,0.0608,0.0355,0.0181,0.0015,-0.003,-0.008,-0.0088,-0.0089,0.0007,0.0081,0.0017,0,0,0,0,0,0.0586,0.0624,0.0691,0.0771,0.0855,0.0904,0.097,0.099,0.1002,0.0951,0.0923,0.0765,0.0507,0.0389,0.0223,0.017,-0.0057,-0.0029,-0.0119,-0.0263,-0.0261,-0.0173,0,0,0,0,0,0,0.0588,0.0647,0.0686,0.0783,0.0839,0.093,0.0977,0.0981,0.0947,0.0929,0.0787,0.0728,0.047,0.0597,0.0219,0.0169,0.0091,-0.0148,-0.0151,-0.0263,-0.0262,-0.0261,-0.017,0,0,0,0,0]}]]